Wind_Speed
59 59 59 59 59 59 60 61 62 63 64 65 65 66 66 66 65 65 65 66 66 65 65 64 65 67 69 71 71 71 71 71 72 73 73 73 74 74 74 74 73 73 72 70 68 67 66 65 64 64 61 55 52 48 46 45 42 41 41 42 43 43 42 41 39 38 37 37 37 37 35 32 28 25 23 22 20 19 16 14 14 12 7 5 6
58 59 59 58 58 58 59 59 59 60 61 63 64 65 66 67 66 66 67 67 68 69 69 69 69 70 72 73 72 71 72 73 74 74 73 74 74 74 74 74 73 72 70 69 67 66 65 64 64 63 58 53 50 47 44 40 39 41 41 42 43 41 39 38 37 36 36 36 36 35 32 28 25 23 21 21 20 20 18 17 18 19 14 8 10
60 60 60 59 59 58 59 59 59 59 60 61 62 64 65 65 66 67 67 68 68 69 70 71 72 73 74 73 72 72 74 75 74 74 73 73 74 74 73 73 72 70 69 67 66 65 65 64 64 60 54 50 48 45 40 38 40 41 41 42 40 38 36 36 36 36 36 35 34 32 29 25 23 21 18 18 19 20 21 21 21 21 20 17 19
62 63 62 61 60 59 60 60 60 60 61 62 63 64 65 65 66 67 67 68 68 68 70 71 72 72 73 72 73 74 75 74 74 73 73 73 73 73 73 72 70 69 67 66 65 65 65 64 62 57 50 48 46 41 38 40 41 40 40 40 37 35 34 35 35 35 35 34 33 31 27 23 21 19 18 18 18 20 20 21 23 23 23 23 26
64 64 63 63 62 61 62 62 62 62 63 64 64 65 66 66 66 66 66 66 66 67 69 70 71 72 72 73 74 74 74 74 74 73 73 72 72 72 71 70 68 67 66 65 65 65 65 63 59 52 47 45 42 37 39 42 40 39 38 36 34 33 33 34 34 34 34 33 32 29 25 21 19 18 18 18 18 19 20 22 23 24 25 25 26
65 65 64 63 63 64 63 64 64 65 65 65 65 65 65 65 65 66 66 66 66 68 69 70 72 73 74 74 74 74 74 74 73 73 72 71 71 71 70 69 67 66 65 65 65 65 64 61 55 48 44 42 38 37 42 41 38 37 35 33 32 32 33 33 33 33 33 32 30 27 23 20 18 17 17 18 18 19 20 21 22 22 23 24 24
67 67 66 65 64 64 64 64 65 65 66 66 66 66 67 67 68 68 69 69 69 70 71 72 73 73 74 73 73 73 73 73 72 72 71 70 69 69 69 67 66 65 65 65 65 63 61 56 48 43 40 37 36 40 42 39 36 34 32 31 30 32 32 32 32 32 31 30 28 25 22 18 17 18 17 18 18 19 19 20 20 21 21 22 22
68 69 68 67 66 65 65 66 66 67 68 68 68 69 70 71 71 72 72 72 72 72 72 73 73 73 73 72 72 72 73 72 71 71 70 69 68 68 67 67 66 65 64 64 63 60 57 49 42 38 37 35 38 42 40 36 33 31 29 29 30 31 31 31 31 30 29 28 26 23 20 18 17 18 18 18 18 18 18 18 18 19 19 19 19
69 70 70 70 71 71 71 70 71 72 72 72 72 73 73 73 73 74 74 73 73 72 72 72 72 72 71 71 72 72 72 71 71 70 70 69 68 67 67 66 65 64 63 61 59 56 49 41 37 35 35 37 40 40 36 33 30 27 26 28 30 30 30 30 30 29 28 27 25 22 19 17 17 18 18 18 18 17 17 18 18 18 17 17 17
68 69 71 72 74 74 75 75 75 75 75 74 74 74 73 73 74 74 74 73 73 72 71 71 71 71 71 71 72 72 71 71 70 70 69 68 67 66 65 64 63 61 59 58 55 49 41 35 34 34 36 39 39 36 32 29 26 24 25 27 28 28 29 29 29 28 26 25 24 21 18 17 18 19 19 19 18 17 18 18 18 18 18 18 19
72 72 74 75 76 76 77 77 77 76 74 73 73 73 73 73 74 73 73 73 72 71 70 70 70 70 71 71 71 71 71 70 70 69 68 66 65 64 63 61 60 57 55 52 48 40 34 32 33 34 37 37 34 31 29 24 22 23 24 26 26 27 27 27 27 26 24 23 23 20 18 18 19 19 19 19 18 18 18 19 19 19 20 20 20
73 74 74 74 74 75 75 75 75 74 74 74 74 74 74 74 73 73 73 72 71 71 70 70 70 71 71 71 71 70 70 69 68 67 65 64 62 60 60 58 56 53 50 45 39 33 31 31 33 35 35 32 30 28 25 21 20 21 23 24 25 26 26 26 25 24 23 22 22 20 19 19 20 20 20 20 20 18 19 20 20 20 20 19 20
71 71 71 71 72 72 72 73 74 75 76 75 74 74 74 74 74 73 73 72 72 71 71 70 70 70 70 70 69 68 67 66 65 63 62 61 58 57 56 54 51 48 43 37 32 31 31 31 31 31 31 29 28 25 22 18 18 20 22 23 24 25 25 25 24 23 22 21 21 21 20 20 20 21 21 21 21 20 20 21 21 20 19 19 20
72 72 73 73 73 73 74 74 75 76 76 75 75 75 74 74 74 73 72 72 72 72 71 70 70 68 68 67 66 65 64 63 62 61 59 58 56 54 52 50 46 42 36 31 30 31 30 27 26 27 28 28 25 22 19 17 18 20 21 22 23 24 24 24 23 22 21 21 21 21 21 21 22 22 22 21 21 20 21 21 21 21 20 20 20
72 73 73 73 73 74 74 74 75 75 75 75 74 74 74 74 73 73 72 72 72 71 70 68 67 65 64 64 64 63 61 61 60 58 56 55 54 50 47 45 41 35 29 27 29 30 26 23 24 26 27 25 21 19 18 18 19 20 21 22 23 23 24 24 23 22 21 21 21 22 22 22 22 22 22 22 21 21 21 22 22 21 21 21 21
71 71 71 72 73 73 73 74 74 74 74 73 73 73 72 72 72 71 70 70 69 68 67 65 64 62 62 62 62 61 60 59 58 57 55 54 50 45 42 39 33 27 24 25 28 26 22 21 24 25 24 20 18 18 18 19 19 20 21 22 23 23 23 24 24 23 21 21 22 22 23 23 23 22 22 22 22 22 22 23 23 22 22 22 22
70 71 72 72 72 72 72 72 72 72 72 71 70 69 69 68 68 68 67 67 66 65 64 63 62 61 60 60 60 59 58 57 56 55 53 49 45 40 36 32 26 22 23 24 24 22 22 23 24 24 21 17 17 19 18 19 21 20 21 22 24 24 24 25 25 24 23 22 22 22 23 24 24 23 23 23 23 23 23 24 24 23 23 23 23
68 69 68 68 69 68 68 67 67 67 67 66 65 65 65 66 66 66 66 65 65 64 63 62 61 59 58 58 58 57 56 55 54 51 47 44 39 32 27 25 23 21 23 23 22 23 23 23 24 22 19 16 18 20 20 21 21 21 21 23 24 25 24 26 27 26 25 25 23 23 23 24 24 24 24 24 23 23 23 24 24 24 23 23 23
66 66 65 65 64 63 63 62 62 62 62 63 63 64 65 66 66 66 65 64 63 62 61 60 58 57 56 56 56 54 53 51 48 45 41 36 30 23 20 21 22 23 24 22 22 22 22 23 23 21 18 17 19 21 22 22 21 21 22 23 25 25 24 28 30 28 27 27 25 24 23 24 25 25 24 24 24 22 22 23 24 24 24 23 23
66 65 64 63 62 61 61 60 61 62 62 63 64 64 65 65 65 64 63 62 61 60 59 58 57 56 56 55 53 50 47 45 42 39 33 27 21 17 18 21 24 27 26 22 21 21 22 23 21 20 19 18 20 23 24 23 22 22 23 24 26 25 24 29 32 31 29 28 27 26 24 24 24 25 24 24 24 21 21 23 24 25 24 23 23
66 65 63 63 62 60 60 61 63 63 63 64 64 64 64 64 64 62 61 61 59 59 57 56 55 55 54 52 48 43 40 38 34 30 24 21 19 17 18 21 25 26 22 19 18 20 24 22 20 21 20 19 21 24 25 25 23 23 23 25 26 25 24 29 34 34 31 28 28 27 26 24 24 24 24 23 22 21 21 23 24 25 24 23 23
65 64 64 63 61 60 61 63 63 63 63 62 62 63 64 63 62 60 59 58 57 56 55 54 53 52 49 44 39 35 33 30 25 23 22 22 20 18 18 20 21 20 16 16 18 22 26 21 20 21 21 21 23 25 26 26 24 23 23 24 26 25 25 30 35 36 32 29 28 28 27 25 24 24 24 23 21 21 22 23 23 24 24 23 23
64 63 62 61 60 61 62 62 62 62 61 61 63 63 62 60 57 56 54 53 54 52 50 48 46 43 38 33 30 28 27 23 19 21 22 21 20 18 19 19 19 17 15 17 19 24 26 21 21 22 21 22 24 27 27 26 25 23 23 24 25 24 26 32 36 37 33 29 28 27 27 26 25 24 23 22 21 21 23 23 22 23 24 24 23
62 60 58 58 58 60 61 61 61 61 61 59 58 56 54 52 52 51 50 51 50 45 41 39 36 32 28 27 26 23 21 20 20 20 20 18 19 19 19 21 22 21 20 20 21 26 25 21 22 22 22 23 25 28 27 27 25 24 26 27 26 25 28 33 37 38 33 29 27 26 26 25 25 24 24 23 21 21 23 23 22 22 23 24 24
58 56 56 57 58 59 59 59 57 56 55 48 45 48 47 46 49 49 49 48 44 38 36 35 32 27 25 27 25 21 20 20 22 22 22 22 23 23 22 24 25 24 24 24 24 26 24 22 23 22 23 24 26 28 27 27 26 26 28 29 28 28 30 34 38 38 32 29 28 26 26 25 24 24 23 23 21 21 22 23 22 22 23 24 24
56 55 56 53 49 48 44 41 41 41 40 33 35 44 44 42 46 46 45 43 39 35 34 34 31 27 25 26 24 22 21 22 25 27 28 28 27 26 26 28 26 24 25 26 25 25 24 23 23 23 24 25 28 29 27 27 28 27 29 31 31 30 32 35 38 35 30 29 28 26 26 25 24 23 23 22 21 20 21 23 23 22 23 23 24
58 54 52 46 38 36 32 25 21 24 28 25 33 43 41 40 41 41 40 40 38 37 34 32 30 27 25 26 26 25 25 26 27 28 29 29 28 28 28 28 26 25 25 25 27 27 24 23 23 24 25 26 29 29 28 28 28 28 29 31 32 32 34 36 36 32 28 28 28 26 25 25 23 22 22 22 21 20 20 23 23 23 23 23 24
56 52 48 45 42 41 39 33 23 20 26 31 38 43 40 37 36 37 39 40 40 38 33 30 30 30 29 29 29 27 26 27 27 25 25 27 27 27 28 28 27 25 23 25 28 27 23 22 24 26 27 28 29 29 28 27 28 30 30 31 33 34 35 34 32 30 29 28 27 26 25 25 24 23 23 23 22 21 20 22 23 23 23 23 24
54 54 52 51 51 47 45 44 37 30 31 36 41 42 38 33 34 38 40 39 38 35 32 31 31 32 31 31 31 28 27 29 28 27 26 26 25 25 27 28 25 23 24 27 27 23 22 24 25 27 28 29 29 30 29 27 29 31 31 31 31 30 32 30 29 31 32 29 28 27 27 27 25 25 25 25 24 21 20 21 23 24 24 23 23
54 57 58 56 55 51 48 47 47 43 40 42 41 42 38 31 34 39 39 38 36 32 32 32 32 33 31 31 31 30 31 33 32 30 29 28 25 25 27 27 25 25 27 28 25 22 24 27 26 27 28 29 29 29 30 28 28 32 33 32 26 26 29 28 28 32 32 30 29 28 28 28 26 25 25 24 23 20 19 21 23 23 23 23 22
53 55 57 56 53 50 47 45 49 49 46 46 45 45 42 34 35 39 38 36 32 32 34 35 34 33 32 32 32 32 34 36 35 31 30 30 29 27 27 27 27 28 29 28 26 26 30 31 28 28 28 29 29 29 30 29 30 33 33 31 26 26 29 28 30 33 32 32 30 28 28 28 26 24 22 21 20 18 18 20 22 22 22 22 22
48 52 54 54 53 49 45 45 49 50 45 44 45 47 45 39 37 37 37 34 32 34 36 35 33 31 31 32 33 33 33 34 33 31 31 32 31 30 30 29 29 29 29 30 31 32 35 33 29 29 29 29 29 29 31 29 30 32 31 29 26 26 28 29 31 33 33 32 29 28 28 27 25 22 21 19 18 18 18 19 21 22 22 22 22
47 53 54 54 53 49 46 46 49 51 48 46 47 48 46 40 36 36 37 36 36 37 36 33 32 31 30 31 32 33 34 34 33 32 33 33 32 32 32 32 32 32 33 35 37 39 38 33 29 29 29 29 28 29 29 27 28 30 27 24 24 25 26 29 32 33 33 32 29 28 28 26 23 21 20 18 17 17 18 19 20 21 21 22 22
51 55 55 54 53 50 49 49 49 49 50 52 56 55 51 43 35 34 38 39 38 37 35 31 31 32 32 32 33 35 37 37 36 36 36 35 33 33 33 34 36 37 38 40 42 42 37 31 30 30 30 29 28 29 26 24 28 28 25 23 24 25 26 29 33 34 33 31 28 27 26 23 21 20 19 17 16 16 17 18 19 19 19 18 20
55 56 56 55 54 51 50 51 51 50 50 53 57 57 56 50 40 36 39 39 37 37 33 30 31 34 35 35 34 36 37 35 33 34 35 35 34 33 32 34 37 40 41 42 43 40 33 31 32 31 31 30 28 27 26 26 28 28 27 27 26 26 28 31 33 34 33 29 26 26 25 22 20 19 17 15 14 16 17 19 20 20 19 17 19
54 56 57 56 54 52 51 51 51 52 51 52 54 55 56 54 49 45 43 39 36 36 32 28 28 31 34 35 35 36 37 35 32 31 32 33 34 34 33 33 36 39 41 42 40 36 32 31 33 32 31 30 28 26 27 28 28 29 29 27 27 27 28 29 31 33 30 26 26 25 23 20 19 18 17 16 15 17 18 18 20 22 22 21 21
55 58 60 58 56 55 53 54 53 52 52 52 54 55 56 57 54 51 50 44 40 38 34 30 29 30 32 33 34 35 36 35 31 30 30 32 33 35 35 35 36 39 40 40 38 35 32 29 30 32 31 30 28 25 25 27 28 31 28 24 28 28 28 29 31 30 28 26 26 24 22 21 21 21 21 20 18 19 20 20 22 23 23 23 24
57 60 62 61 59 58 56 56 55 53 52 52 54 55 55 55 53 50 49 43 37 37 36 35 34 33 32 31 33 34 35 33 30 29 28 29 32 34 37 38 39 40 40 40 39 36 32 29 29 31 31 31 29 25 26 28 28 29 25 23 28 30 30 31 30 28 28 28 26 24 24 24 25 25 24 23 22 23 24 24 25 26 25 26 27
59 61 63 62 60 58 57 55 54 53 53 52 54 56 55 54 51 49 48 40 34 34 36 38 38 35 31 31 34 34 33 34 32 31 28 28 32 36 38 39 38 39 38 39 39 36 32 29 28 31 32 32 32 28 26 28 27 26 26 28 32 33 32 31 30 30 30 30 29 28 29 30 31 28 25 25 25 27 27 27 28 29 30 29 30
60 60 61 63 61 59 57 53 50 50 52 52 54 57 58 58 55 51 50 45 41 38 34 36 36 33 31 31 34 34 34 35 35 34 32 33 35 37 38 37 35 36 37 38 38 35 30 27 28 31 31 31 31 28 26 27 28 29 32 34 35 35 33 33 33 34 33 33 34 35 35 36 36 32 30 29 28 29 30 30 31 31 32 32 32
60 60 63 64 62 58 55 50 47 48 49 50 52 56 58 58 55 53 51 48 47 44 37 37 36 34 34 34 36 36 36 37 37 38 38 39 39 38 36 34 34 36 37 37 36 35 30 26 28 29 28 29 30 29 29 30 31 32 33 34 35 37 38 40 40 38 36 35 35 37 38 37 36 35 34 33 31 30 30 31 31 31 32 32 32
57 59 61 60 57 56 53 49 48 49 48 48 50 53 55 54 52 53 53 52 52 50 45 44 43 38 35 35 37 39 39 40 41 40 41 42 41 37 34 34 35 36 35 33 32 32 29 27 26 26 28 30 30 29 30 30 30 32 33 35 38 41 44 46 42 39 37 37 37 38 38 37 36 35 35 35 34 31 30 31 31 31 32 31 31
44 50 53 53 54 54 52 50 50 50 48 48 50 52 52 51 50 51 53 53 54 53 51 51 49 43 39 39 40 41 41 39 38 39 40 41 39 36 36 37 37 38 37 33 28 27 28 28 27 26 27 29 30 29 29 30 32 34 36 39 42 44 45 42 36 35 36 38 39 39 39 38 37 36 35 35 35 33 32 32 32 32 32 32 31
33 39 45 48 51 53 53 53 52 51 49 49 50 50 51 51 51 50 52 52 52 53 52 52 52 50 47 46 44 42 41 39 39 40 41 42 40 40 42 42 42 43 42 36 29 27 30 33 33 31 30 30 31 32 33 36 38 39 41 42 43 44 41 36 33 35 36 36 38 39 40 40 39 36 34 34 34 34 34 33 33 33 33 33 32
36 33 35 44 51 55 55 54 54 52 50 50 50 49 50 51 51 51 51 51 52 53 52 50 51 52 50 48 45 44 43 43 43 43 42 43 43 44 46 47 47 48 45 39 32 29 30 34 37 37 36 36 37 38 39 40 41 43 45 44 44 43 39 37 36 35 34 34 35 38 39 39 38 36 34 34 34 35 36 35 34 33 33 33 33
36 27 28 39 49 55 56 53 54 53 51 49 49 49 49 50 51 51 51 52 52 53 54 51 50 50 49 49 48 46 45 44 43 42 43 45 46 47 49 49 49 48 46 41 35 34 34 36 39 40 42 44 45 46 46 47 47 47 45 45 45 44 41 39 35 32 33 34 34 35 38 38 38 37 36 35 36 37 37 35 33 33 33 33 34
36 32 34 36 40 49 56 55 54 53 52 50 49 48 48 49 51 51 52 53 52 52 53 53 50 49 50 50 48 46 46 45 44 43 44 45 47 49 50 50 49 47 45 42 38 37 39 40 41 42 45 49 52 53 54 54 51 48 47 46 43 40 39 36 33 33 34 34 32 32 34 35 36 36 36 36 35 35 34 34 34 35 36 36 35
37 40 44 41 39 45 52 55 53 51 50 49 49 48 48 49 51 52 53 53 53 52 52 52 51 49 50 50 47 45 45 45 46 47 47 46 47 49 50 51 51 49 46 41 38 39 40 43 45 47 49 54 57 57 53 51 49 48 49 45 40 37 36 36 35 36 36 35 34 32 30 31 33 34 34 33 32 33 34 35 36 37 37 37 36
40 44 48 47 47 47 49 51 51 50 49 48 48 49 49 50 50 51 53 54 54 54 53 53 52 51 51 49 48 47 46 45 46 49 50 49 48 49 50 49 49 48 44 41 41 43 46 50 54 56 57 57 57 55 52 50 48 45 43 41 38 36 36 38 39 39 38 36 34 32 31 32 33 33 32 32 33 34 35 36 36 36 35 35 36
41 44 48 51 52 52 50 50 51 51 49 49 49 49 48 49 50 50 51 53 54 54 54 53 53 54 53 50 49 48 49 48 48 49 52 53 53 53 53 52 51 50 49 49 50 52 55 56 58 58 58 56 54 52 49 46 43 41 40 39 37 36 36 38 39 38 37 35 34 33 32 33 33 33 32 33 35 36 36 36 37 36 36 37 39
37 41 45 47 49 52 55 55 56 54 50 50 50 49 48 49 50 50 51 52 52 52 53 53 54 55 54 52 50 50 51 53 52 51 52 54 56 57 57 57 57 57 58 58 58 59 58 55 54 54 53 51 49 47 44 41 40 41 41 39 36 36 36 36 37 36 35 34 34 34 33 32 32 32 33 35 37 38 39 39 38 37 38 39 40
Wind_Direction
276 277 277 277 278 280 280 280 280 279 279 280 281 282 282 282 283 283 284 284 284 285 286 287 287 288 290 293 294 294 296 297 298 298 299 299 299 300 301 302 303 304 305 306 307 308 309 310 312 313 314 314 311 310 309 308 309 310 309 309 308 308 309 310 311 310 309 307 305 304 303 303 302 297 293 290 286 281 273 259 263 275 285 323 305
276 277 276 277 279 281 281 281 281 280 279 280 280 281 281 282 282 283 283 283 283 283 284 286 287 288 290 292 293 293 295 295 296 297 297 298 298 299 300 301 302 303 304 306 307 308 309 310 312 313 314 312 310 308 308 308 310 309 308 309 308 308 310 311 311 310 308 307 305 304 303 301 297 292 289 284 281 278 274 265 267 275 268 261 275
275 275 275 276 278 280 280 280 280 279 279 279 280 281 281 282 282 282 283 283 283 284 284 285 286 287 289 291 291 292 293 294 295 296 297 297 298 299 300 301 302 303 305 306 307 308 309 311 312 313 313 311 308 307 308 310 310 309 309 309 309 310 310 311 310 309 309 307 305 305 302 299 295 289 284 280 277 275 276 275 274 275 266 254 264
274 274 275 276 276 278 278 278 278 279 279 280 280 281 282 282 283 283 283 284 285 286 286 286 287 288 289 290 290 291 292 293 295 296 297 297 298 299 300 301 302 303 305 306 307 309 310 311 312 313 312 309 307 306 310 311 309 308 309 309 310 310 311 311 311 310 309 307 306 304 301 296 292 286 281 279 277 274 276 280 279 279 277 273 276
276 276 276 276 276 277 277 277 278 279 279 280 281 281 282 283 283 284 285 285 286 286 286 287 287 288 289 289 290 291 292 294 295 296 297 298 299 299 300 301 303 304 305 306 308 309 310 311 312 313 311 308 305 306 312 311 308 308 309 309 310 311 312 312 312 311 309 307 306 303 299 293 288 283 280 279 277 276 280 285 287 286 286 285 284
277 277 276 276 277 277 278 278 279 279 280 280 281 281 282 283 284 285 285 286 286 286 287 287 288 288 289 290 291 292 293 294 295 296 297 298 299 299 300 302 303 305 306 307 308 309 310 311 312 311 309 306 303 308 312 310 308 308 309 309 310 312 313 314 312 311 309 308 306 302 297 292 287 282 279 279 279 282 288 290 291 290 287 285 284
273 273 273 274 275 276 278 278 279 280 280 281 281 282 283 284 285 286 286 286 287 288 288 288 289 290 290 291 292 293 294 295 295 296 297 298 299 300 301 302 304 305 306 307 308 309 310 311 311 309 307 304 304 309 311 309 308 308 309 309 311 314 314 314 313 311 310 308 305 301 295 291 287 284 282 281 283 289 293 293 293 292 289 285 283
271 272 273 276 277 278 279 279 280 281 282 282 282 283 284 285 286 286 287 288 289 289 289 289 290 290 291 292 293 293 294 295 296 297 297 298 299 300 301 302 304 305 306 307 307 308 310 311 310 307 305 303 305 309 310 308 308 308 309 311 314 315 316 315 313 312 311 309 305 299 293 290 288 287 288 287 288 293 294 294 295 294 291 288 287
271 272 273 275 277 279 280 281 282 283 284 284 284 284 285 285 286 287 288 288 288 288 289 289 290 291 292 292 293 294 295 296 296 297 298 299 300 301 302 303 304 305 306 306 307 308 309 310 308 305 304 303 306 309 309 308 307 307 310 313 316 317 317 316 314 313 311 309 304 297 292 288 288 289 290 290 290 293 295 296 296 293 291 291 291
271 271 272 274 275 277 278 280 281 283 283 283 284 284 284 285 286 286 287 287 288 288 289 290 290 291 292 293 294 295 295 296 297 298 298 299 300 301 302 303 304 305 306 307 307 308 308 308 306 303 302 304 307 309 308 307 305 307 312 316 318 319 319 317 316 314 312 310 303 297 291 286 287 289 291 291 290 291 295 296 293 289 289 291 292
271 272 273 274 275 276 277 279 280 281 282 283 283 283 284 285 285 286 286 287 288 289 290 291 292 293 293 294 295 295 296 297 297 298 298 299 300 301 302 303 304 306 306 306 306 306 306 305 303 302 303 306 308 309 306 303 303 307 315 319 321 321 320 318 317 314 312 309 302 296 290 286 287 290 293 294 291 290 294 295 290 289 291 295 297
272 272 273 273 274 275 276 277 278 280 281 283 283 284 284 285 285 286 287 288 289 290 291 292 293 294 294 295 295 295 296 296 297 298 298 299 300 301 302 304 305 306 306 305 304 304 304 304 302 302 303 307 311 309 303 300 302 308 317 322 322 323 320 318 317 314 311 307 301 296 289 287 288 292 295 297 295 289 292 293 290 291 294 299 304
272 271 272 273 273 274 275 276 277 279 281 282 282 283 284 285 286 287 289 290 291 292 293 293 293 294 294 295 295 295 296 296 297 298 299 300 301 302 303 305 305 306 305 303 303 302 304 303 302 302 304 310 313 306 298 298 301 308 318 323 323 323 320 317 316 312 308 306 301 295 290 288 290 294 296 297 296 289 289 291 288 291 296 301 307
270 271 271 272 272 273 274 276 277 279 280 281 282 284 286 287 288 290 291 291 292 292 293 293 294 294 295 295 295 296 297 297 298 298 299 301 302 303 305 305 305 304 303 303 303 303 304 303 301 302 305 311 311 300 293 296 299 306 317 322 323 324 321 316 313 312 307 304 301 296 292 291 291 293 294 295 296 290 286 288 287 289 294 301 307
271 271 272 273 273 274 276 277 278 280 281 282 284 286 288 289 290 290 291 291 292 292 293 293 294 295 295 295 295 296 297 297 298 299 300 301 302 304 306 304 303 303 304 305 304 305 304 302 303 303 306 309 304 295 293 295 298 305 315 321 322 323 323 316 310 309 307 302 299 297 294 292 292 292 292 291 292 290 285 285 285 286 291 298 305
272 273 274 274 275 276 278 279 280 282 283 285 286 288 289 289 290 290 291 292 292 293 293 294 294 295 295 295 296 297 297 297 297 298 300 301 303 305 305 302 302 304 307 307 305 303 302 305 305 305 308 305 298 298 297 296 297 302 312 319 320 320 323 319 309 304 303 301 296 295 293 292 292 292 291 288 287 286 284 283 281 283 287 293 302
273 274 275 275 276 278 280 281 283 284 285 286 287 288 289 290 290 291 291 292 293 293 293 294 294 295 295 296 296 297 297 297 298 299 300 302 303 304 303 302 304 308 311 307 302 299 302 307 306 306 309 300 298 304 301 297 297 300 309 315 317 317 321 324 316 303 297 297 295 293 292 292 292 293 294 293 288 283 282 281 278 280 284 290 298
275 275 276 277 279 281 282 284 286 287 287 288 288 289 290 291 292 292 292 292 293 293 293 294 294 295 295 296 296 296 297 297 298 298 300 301 302 304 304 306 306 307 309 302 296 296 301 306 306 308 308 298 302 308 305 300 297 298 306 312 313 312 320 328 325 312 299 293 293 293 292 291 292 294 297 299 296 285 279 279 276 276 280 287 294
276 277 278 280 282 283 285 286 288 289 290 290 290 291 292 292 292 292 292 292 292 292 293 293 294 295 295 296 296 297 297 297 297 297 299 301 303 306 311 311 304 300 302 297 291 293 300 306 307 307 304 298 303 311 310 306 299 298 303 308 310 309 318 329 328 321 307 294 289 290 292 292 292 295 298 301 301 291 280 278 275 274 278 284 291
277 278 279 281 283 285 287 288 289 291 291 292 292 293 293 293 292 291 291 291 292 292 292 293 294 295 295 295 296 297 297 296 295 297 299 302 308 312 315 310 299 296 296 292 285 291 304 307 306 306 302 296 303 312 312 309 304 300 303 306 308 307 314 327 329 324 316 302 291 286 289 292 293 296 298 301 302 293 282 279 276 275 277 283 289
277 278 280 282 284 286 288 289 290 290 291 292 293 293 293 291 290 290 290 291 291 291 292 293 294 293 293 294 297 296 294 294 295 297 298 302 308 307 305 300 297 297 292 284 278 294 311 308 305 306 302 296 302 312 313 311 305 300 301 304 307 305 310 324 328 325 319 308 297 287 286 290 294 296 297 300 299 289 282 281 279 277 277 281 287
278 279 281 282 284 287 288 289 289 291 292 292 292 292 291 289 289 289 290 290 290 291 292 293 292 291 293 295 296 293 292 294 296 296 294 294 294 289 289 292 300 301 285 274 275 300 314 307 304 306 301 297 302 310 312 311 306 301 299 301 303 301 308 321 326 325 319 312 302 290 286 289 294 297 296 299 297 287 282 281 281 279 276 279 285
279 281 282 284 286 288 289 290 291 292 292 292 292 290 289 289 289 289 289 290 291 293 293 292 292 293 295 295 293 292 292 294 293 290 286 284 281 278 282 288 300 299 278 270 278 304 312 303 303 304 300 296 302 309 311 312 309 302 297 298 300 296 303 317 324 324 319 314 306 294 287 288 294 296 295 298 296 287 284 280 276 276 276 277 283
280 281 284 287 289 290 290 291 292 293 292 292 290 287 288 289 288 287 289 292 292 292 292 294 295 295 294 292 291 290 287 289 286 280 279 280 281 280 280 285 293 291 280 273 285 307 308 300 302 303 300 297 302 308 310 313 312 304 298 300 301 293 298 311 322 323 318 314 309 297 288 286 291 295 295 297 296 289 287 281 273 273 275 277 282
280 282 286 289 291 293 293 294 294 293 293 289 283 282 283 283 282 285 289 291 290 288 289 293 294 291 289 291 293 286 277 279 276 274 277 280 281 280 278 284 289 287 281 275 288 306 302 298 301 301 301 297 302 308 310 315 315 309 302 303 303 297 299 310 320 322 317 315 311 301 291 286 290 294 296 297 296 292 289 284 275 273 274 276 282
281 285 288 291 293 294 294 296 299 300 298 286 273 275 276 274 277 282 287 286 286 290 288 286 286 283 284 291 293 285 274 270 269 273 278 279 280 279 282 288 287 284 282 276 286 302 300 298 299 301 303 298 302 307 308 314 318 313 306 305 304 301 305 312 320 321 317 316 313 305 296 288 289 294 296 296 297 294 290 285 276 272 273 276 282
284 287 288 288 282 274 272 274 285 297 296 278 263 268 273 273 275 278 281 281 284 291 287 278 276 274 279 286 285 281 275 270 269 275 280 282 282 282 286 286 281 282 281 274 283 295 298 299 298 301 303 301 303 307 307 313 319 317 308 305 303 304 309 314 319 321 319 319 316 311 302 292 288 293 296 295 296 294 289 284 276 273 275 277 283
285 285 282 276 267 261 261 258 253 261 269 265 261 266 271 273 274 274 277 280 284 288 281 268 265 269 277 280 279 277 273 271 273 277 281 284 285 284 283 281 279 278 272 274 285 291 296 300 299 301 303 303 305 307 306 309 318 320 312 305 304 306 310 314 319 320 320 320 317 314 310 300 290 288 292 294 295 293 289 286 279 275 276 278 283
283 281 276 269 266 264 262 259 254 251 252 257 261 264 266 269 271 273 278 280 282 281 270 260 263 271 276 275 274 271 268 271 274 276 278 280 281 280 278 277 275 268 267 280 289 290 297 302 300 302 303 304 306 307 304 304 314 320 315 309 306 305 308 312 318 321 320 319 316 313 312 309 298 288 287 290 293 292 288 286 281 277 277 279 283
279 278 275 271 269 265 263 260 256 254 251 251 257 261 262 264 269 273 279 280 277 271 264 267 272 274 275 272 270 265 263 269 274 277 276 274 275 278 276 271 265 263 272 284 287 287 299 304 301 302 302 303 304 304 301 301 310 317 316 311 304 299 301 308 316 320 319 317 316 312 311 311 305 295 288 287 291 290 287 285 281 277 278 280 285
280 278 275 274 271 267 265 260 255 256 252 247 252 258 258 260 266 273 280 279 272 266 268 274 276 276 275 271 270 264 261 266 272 275 273 269 269 273 269 264 261 265 276 284 282 286 299 304 302 302 302 302 303 303 301 301 308 315 313 308 302 296 298 305 314 319 319 316 315 312 310 309 305 299 292 288 288 286 286 284 281 278 279 282 287
279 275 273 273 272 268 264 258 255 255 249 242 245 255 259 259 262 270 277 273 267 267 270 273 273 274 275 272 272 268 263 266 269 270 269 266 266 267 260 257 259 264 276 284 283 289 298 302 301 302 302 302 301 301 301 302 309 313 308 304 303 299 299 306 313 318 318 315 313 311 310 309 304 297 292 289 287 285 284 284 281 279 279 282 289
271 267 267 269 269 267 262 257 255 252 246 241 244 254 259 259 260 267 271 269 266 267 268 269 268 269 270 270 269 268 266 266 267 267 265 265 268 267 260 255 258 264 276 284 286 292 298 297 299 303 302 301 300 297 298 302 309 309 303 302 305 304 304 307 313 318 316 313 312 310 309 309 303 295 290 289 287 284 282 281 278 277 280 287 294
267 265 265 266 266 264 261 257 254 251 247 245 246 251 255 256 258 263 269 269 267 266 266 265 264 264 265 265 265 266 268 268 269 266 262 265 268 269 264 262 264 268 275 283 288 294 295 293 298 304 303 302 300 295 293 298 307 305 298 299 302 306 307 306 311 317 316 312 311 310 309 307 299 290 288 288 285 281 281 283 281 279 283 291 295
266 266 265 264 263 261 259 258 255 253 251 249 247 248 250 250 250 258 269 270 266 265 264 262 263 262 260 261 264 268 270 267 266 263 260 263 264 266 266 267 270 272 276 282 288 291 289 289 298 304 303 301 297 294 291 294 302 301 296 295 294 299 304 303 307 313 313 311 312 312 308 302 293 288 286 282 279 281 282 283 281 280 282 285 289
266 266 266 265 263 261 259 259 257 255 254 251 247 247 248 247 247 254 261 262 262 263 262 262 263 262 257 258 262 265 266 263 259 257 258 260 261 265 267 268 272 276 279 281 285 287 286 290 299 302 301 296 292 295 293 292 296 296 296 294 290 295 302 304 306 307 306 305 308 310 306 298 289 285 280 271 268 272 274 276 280 283 285 286 288
267 267 267 265 264 263 260 260 259 258 255 251 249 248 248 249 250 252 252 254 258 258 257 257 258 259 257 258 259 258 259 259 257 255 255 257 259 262 264 265 271 277 280 281 284 285 284 291 297 296 295 291 290 293 290 285 287 289 289 283 284 295 305 308 306 302 299 299 301 301 300 296 289 283 278 274 268 262 263 272 280 282 283 285 287
266 267 267 267 265 265 263 262 261 259 256 250 248 248 248 250 250 246 245 251 256 254 252 251 254 258 256 255 255 252 253 254 254 254 253 255 257 257 260 265 270 274 277 280 282 279 281 291 293 287 286 286 288 288 281 277 279 282 281 278 287 299 306 308 303 295 294 298 297 291 290 291 290 285 278 276 272 265 265 269 273 276 282 287 288
265 267 269 268 266 266 265 264 261 258 255 248 245 246 246 246 246 240 238 246 252 251 253 252 254 256 251 250 250 249 251 252 255 255 246 246 252 255 260 266 270 272 273 274 272 271 279 290 287 282 281 280 281 279 271 271 272 274 278 285 292 298 303 305 296 288 290 294 293 288 286 288 290 286 278 276 274 272 271 270 269 274 282 287 288
268 270 270 269 268 267 266 264 260 256 252 247 245 245 245 244 244 240 235 239 246 248 251 251 251 247 239 241 245 247 250 251 254 253 244 242 248 255 261 265 269 270 268 266 263 266 276 280 275 275 275 271 272 270 263 266 271 274 279 284 287 291 298 301 293 284 285 291 290 288 287 288 288 285 281 279 277 276 275 274 273 276 281 285 286
268 270 271 270 269 268 265 261 258 255 252 249 248 248 246 244 244 241 235 235 240 242 241 241 242 240 235 237 241 245 250 251 253 252 248 246 248 256 263 264 266 265 262 260 260 265 271 270 268 269 265 261 263 263 262 266 271 275 278 280 283 287 293 296 291 282 282 289 289 287 287 286 286 286 285 285 285 284 280 280 280 280 283 284 285
267 270 271 271 271 268 264 261 259 257 254 252 252 251 250 247 245 243 238 237 237 237 236 235 235 237 236 236 240 246 251 253 252 250 248 249 252 256 260 258 258 260 259 259 263 267 267 264 264 261 256 257 259 261 264 266 268 273 275 279 284 286 290 293 289 281 282 287 286 284 284 283 284 286 286 288 289 289 286 285 284 283 283 283 285
266 271 271 274 276 272 266 264 262 260 258 256 254 253 252 251 248 244 242 240 238 235 234 233 231 231 233 237 243 247 249 249 248 247 247 250 250 248 252 251 250 257 261 260 259 260 262 260 256 252 251 256 260 261 263 267 271 274 277 282 284 287 291 291 285 281 284 287 284 280 279 280 283 284 284 285 286 288 289 288 286 285 285 285 286
252 265 273 280 283 280 275 270 266 262 261 259 256 253 252 251 248 245 243 241 237 234 233 232 231 232 238 243 244 243 243 244 246 247 249 250 245 242 248 250 250 257 261 258 252 251 258 259 253 250 251 258 263 264 267 272 275 278 281 284 284 288 290 284 282 285 286 287 284 280 279 280 282 284 285 284 285 287 289 289 290 290 290 290 290
239 256 279 289 290 287 284 279 272 265 261 259 256 253 252 249 246 244 242 240 237 234 232 234 235 237 241 242 240 238 241 244 247 248 247 247 244 243 247 251 254 258 258 256 250 245 252 258 255 254 256 263 270 273 275 278 279 282 284 283 284 287 284 278 281 283 283 287 287 283 282 282 283 286 287 287 287 289 290 290 290 291 292 292 291
236 247 273 282 285 285 283 280 276 269 262 258 257 254 251 248 244 241 240 238 237 236 235 236 237 237 238 238 238 239 242 244 245 246 246 246 245 245 248 251 253 254 254 254 249 242 246 253 257 258 261 267 275 279 280 281 282 283 283 283 284 283 279 279 280 278 280 285 286 284 284 283 283 285 286 287 287 287 288 288 289 291 292 292 290
232 236 246 252 264 274 275 274 272 269 263 259 257 254 250 247 243 239 237 236 235 236 236 236 235 235 236 237 239 240 241 242 241 242 245 245 244 246 247 247 248 251 253 254 249 244 244 249 254 259 263 268 273 277 280 280 280 279 281 283 281 276 274 275 274 273 278 281 281 281 281 280 281 281 283 285 285 285 287 290 292 293 294 294 292
233 236 238 235 240 257 268 269 267 268 264 260 257 254 250 246 243 239 236 235 234 235 235 235 234 235 236 237 237 237 238 240 240 241 243 243 243 244 245 246 248 250 252 251 248 246 247 251 259 264 267 271 274 276 276 276 277 277 278 278 274 271 269 266 266 271 276 277 277 277 276 277 277 278 279 279 281 285 289 291 294 295 295 295 294
239 240 239 236 235 244 259 266 265 266 266 263 258 254 251 247 243 240 237 235 235 235 236 235 235 236 236 235 235 236 236 238 240 241 241 241 242 244 246 248 248 248 248 248 249 253 258 264 270 272 273 274 275 275 273 274 276 275 273 272 269 267 265 263 266 270 271 273 274 272 271 273 273 273 274 275 280 284 287 291 295 297 296 296 296
243 242 239 238 238 239 249 260 265 266 267 266 261 255 251 247 243 241 237 235 234 235 236 236 235 235 235 234 234 235 236 237 238 239 240 240 242 245 248 251 251 251 252 255 259 263 269 274 275 276 275 275 274 274 272 272 273 269 268 270 268 264 263 263 265 267 268 271 270 268 269 272 273 273 273 276 281 284 287 292 295 295 295 296 297
247 245 242 242 244 248 253 260 265 268 270 269 263 256 252 247 243 240 237 234 233 233 234 235 234 234 234 234 235 236 236 237 238 239 240 242 243 246 249 251 253 255 257 261 264 268 271 274 275 275 275 274 272 270 269 268 268 265 266 267 266 264 264 263 264 267 270 270 268 267 272 274 272 271 273 278 282 285 290 294 295 294 295 296 297
Height
10900 10900 10899 10899 10899 10899 10899 10899 10899 10899 10898 10898 10897 10896 10896 10896 10896 10896 10895 10893 10891 10890 10889 10888 10886 10885 10883 10881 10880 10878 10876 10875 10873 10871 10869 10866 10864 10862 10860 10858 10857 10854 10852 10850 10847 10844 10841 10838 10835 10832 10829 10826 10823 10820 10817 10813 10811 10808 10806 10804 10802 10799 10797 10794 10792 10790 10788 10786 10784 10783 10782 10781 10781 10779 10777 10776 10775 10776 10776 10776 10776 10776 10774 10770 10769
10897 10896 10895 10896 10895 10896 10895 10896 10895 10895 10895 10894 10893 10893 10892 10892 10892 10892 10891 10889 10887 10886 10885 10884 10882 10881 10879 10877 10876 10874 10872 10871 10869 10868 10865 10862 10860 10858 10856 10855 10853 10851 10849 10846 10844 10841 10838 10835 10832 10829 10825 10822 10819 10817 10814 10811 10808 10805 10803 10801 10799 10796 10794 10792 10790 10788 10786 10784 10782 10781 10780 10779 10779 10778 10776 10775 10774 10774 10773 10774 10773 10773 10772 10768 10765
10892 10892 10892 10893 10892 10893 10892 10892 10891 10891 10891 10890 10890 10889 10888 10888 10888 10887 10887 10885 10884 10883 10882 10880 10878 10876 10875 10874 10872 10870 10867 10866 10865 10863 10861 10858 10856 10854 10852 10851 10849 10847 10845 10843 10840 10837 10834 10831 10828 10825 10822 10819 10816 10813 10810 10808 10805 10802 10800 10797 10796 10794 10792 10790 10788 10786 10784 10782 10780 10779 10778 10777 10776 10776 10775 10774 10773 10772 10771 10771 10771 10770 10769 10768 10765
10888 10888 10888 10889 10889 10889 10888 10888 10887 10887 10887 10886 10886 10885 10884 10884 10884 10883 10883 10882 10881 10879 10878 10876 10874 10872 10870 10869 10867 10865 10863 10861 10860 10858 10857 10854 10852 10850 10848 10846 10845 10843 10841 10838 10836 10833 10830 10827 10824 10822 10819 10815 10812 10810 10807 10804 10802 10799 10797 10794 10793 10791 10790 10788 10786 10784 10782 10780 10778 10777 10776 10775 10774 10774 10773 10773 10772 10771 10770 10769 10768 10767 10766 10766 10765
10884 10884 10885 10885 10885 10885 10884 10884 10884 10884 10883 10883 10882 10881 10880 10880 10879 10878 10879 10879 10878 10875 10873 10871 10869 10867 10866 10864 10862 10860 10858 10856 10855 10854 10853 10850 10848 10845 10843 10842 10841 10839 10837 10834 10832 10829 10826 10823 10820 10818 10816 10813 10809 10806 10804 10801 10799 10796 10794 10792 10791 10789 10788 10787 10784 10782 10780 10777 10776 10775 10774 10774 10773 10773 10772 10771 10770 10769 10769 10768 10766 10765 10764 10763 10763
10881 10880 10881 10881 10881 10881 10881 10881 10880 10880 10879 10879 10878 10878 10877 10876 10876 10874 10874 10874 10874 10871 10869 10867 10864 10863 10861 10859 10857 10855 10853 10851 10850 10849 10848 10846 10844 10841 10839 10838 10837 10835 10833 10830 10828 10825 10822 10820 10817 10815 10812 10810 10807 10804 10801 10798 10796 10794 10792 10790 10789 10787 10786 10785 10783 10781 10778 10776 10774 10773 10772 10772 10772 10772 10771 10770 10769 10768 10767 10766 10765 10764 10763 10762 10761
10877 10877 10877 10877 10877 10877 10877 10877 10877 10876 10876 10876 10875 10874 10873 10872 10871 10870 10869 10868 10868 10867 10865 10862 10859 10857 10855 10854 10852 10850 10848 10847 10845 10844 10843 10842 10840 10837 10835 10833 10832 10831 10829 10826 10824 10821 10819 10816 10814 10812 10809 10807 10804 10801 10799 10796 10794 10792 10790 10788 10787 10785 10784 10783 10781 10779 10777 10774 10772 10771 10770 10770 10770 10770 10769 10769 10768 10767 10766 10765 10764 10763 10762 10761 10760
10874 10873 10873 10873 10873 10873 10873 10873 10873 10872 10872 10872 10871 10870 10869 10868 10866 10865 10863 10863 10863 10862 10860 10857 10855 10853 10851 10849 10847 10845 10843 10842 10841 10839 10838 10837 10836 10834 10831 10829 10828 10827 10825 10822 10820 10818 10815 10813 10811 10809 10807 10804 10801 10799 10796 10794 10792 10790 10788 10787 10785 10783 10782 10781 10779 10778 10776 10774 10772 10771 10770 10769 10769 10768 10768 10767 10766 10766 10765 10764 10763 10762 10761 10760 10759
10870 10869 10869 10869 10869 10869 10868 10868 10868 10868 10868 10867 10866 10866 10864 10863 10861 10860 10858 10857 10857 10856 10854 10852 10850 10848 10846 10844 10842 10840 10838 10837 10835 10834 10833 10832 10831 10830 10827 10825 10824 10823 10821 10818 10816 10814 10811 10809 10808 10806 10804 10802 10799 10796 10794 10792 10790 10788 10787 10785 10783 10782 10780 10778 10777 10776 10774 10773 10771 10770 10769 10769 10768 10768 10767 10766 10765 10765 10764 10763 10762 10761 10760 10759 10758
10865 10865 10865 10865 10865 10865 10864 10864 10864 10864 10863 10863 10862 10861 10859 10858 10856 10855 10853 10852 10851 10850 10850 10847 10845 10843 10841 10839 10837 10835 10833 10832 10830 10829 10828 10827 10827 10825 10823 10821 10820 10819 10817 10814 10812 10810 10808 10806 10805 10803 10801 10799 10796 10794 10792 10790 10788 10787 10786 10784 10782 10780 10778 10776 10775 10774 10773 10772 10771 10770 10769 10768 10768 10767 10767 10766 10765 10764 10763 10762 10761 10760 10759 10758 10757
10861 10861 10861 10861 10861 10860 10860 10860 10859 10859 10859 10858 10857 10856 10855 10853 10851 10849 10848 10847 10846 10845 10845 10843 10840 10838 10836 10834 10832 10830 10828 10826 10825 10824 10823 10822 10822 10821 10819 10817 10816 10815 10813 10810 10808 10806 10805 10804 10802 10800 10798 10796 10794 10792 10790 10788 10787 10785 10784 10782 10780 10778 10777 10775 10774 10773 10772 10770 10770 10769 10768 10768 10767 10766 10766 10765 10764 10763 10762 10761 10759 10759 10758 10757 10756
10856 10856 10856 10856 10856 10855 10855 10855 10855 10855 10854 10854 10853 10851 10849 10848 10846 10844 10843 10842 10841 10840 10839 10838 10835 10833 10831 10828 10826 10824 10823 10821 10820 10819 10818 10818 10817 10816 10814 10813 10812 10811 10809 10806 10804 10803 10803 10802 10799 10796 10795 10793 10792 10789 10788 10787 10785 10784 10783 10781 10779 10777 10775 10774 10773 10772 10771 10770 10769 10768 10767 10767 10766 10765 10764 10764 10763 10762 10761 10759 10758 10758 10757 10756 10755
10851 10851 10851 10851 10851 10851 10851 10851 10851 10851 10850 10849 10848 10846 10844 10843 10841 10839 10838 10837 10836 10834 10834 10832 10830 10828 10825 10823 10820 10819 10818 10815 10815 10815 10814 10813 10813 10812 10810 10809 10808 10806 10805 10802 10800 10800 10800 10799 10796 10793 10792 10791 10789 10787 10786 10785 10784 10783 10781 10779 10777 10776 10774 10773 10772 10771 10770 10769 10768 10767 10767 10766 10765 10764 10763 10762 10761 10761 10760 10758 10757 10757 10756 10755 10754
10846 10846 10846 10846 10846 10846 10847 10847 10847 10847 10846 10845 10843 10841 10840 10838 10836 10835 10833 10832 10830 10829 10828 10826 10825 10823 10820 10817 10815 10814 10813 10811 10809 10810 10809 10809 10809 10808 10807 10805 10803 10802 10801 10799 10797 10797 10796 10795 10794 10792 10790 10788 10787 10785 10784 10783 10782 10781 10780 10778 10776 10774 10772 10771 10770 10769 10768 10768 10767 10766 10766 10765 10764 10763 10762 10761 10760 10759 10759 10758 10757 10756 10756 10755 10754
10842 10841 10841 10841 10842 10843 10843 10844 10844 10843 10842 10840 10839 10837 10835 10833 10831 10830 10828 10826 10825 10823 10822 10821 10820 10818 10815 10812 10810 10810 10809 10807 10805 10805 10805 10805 10805 10805 10803 10801 10800 10799 10797 10796 10795 10794 10793 10793 10791 10790 10788 10786 10784 10783 10782 10781 10780 10779 10778 10777 10775 10773 10771 10769 10768 10767 10766 10766 10765 10765 10764 10764 10763 10762 10761 10760 10759 10758 10758 10756 10756 10755 10755 10754 10753
10837 10836 10837 10837 10838 10839 10840 10840 10840 10839 10838 10836 10834 10832 10831 10828 10826 10825 10823 10821 10819 10818 10816 10815 10814 10813 10811 10808 10806 10805 10804 10802 10800 10800 10800 10800 10800 10800 10799 10797 10796 10796 10795 10793 10792 10791 10791 10790 10789 10787 10786 10784 10782 10781 10780 10779 10778 10777 10776 10775 10773 10771 10770 10768 10767 10766 10765 10764 10763 10763 10762 10762 10761 10760 10759 10759 10758 10757 10756 10755 10755 10754 10754 10753 10752
10832 10832 10832 10833 10834 10836 10836 10836 10835 10834 10833 10831 10830 10828 10826 10824 10822 10820 10818 10816 10814 10813 10811 10810 10809 10808 10807 10804 10802 10801 10799 10798 10796 10795 10795 10796 10796 10797 10795 10794 10793 10793 10792 10791 10789 10788 10788 10787 10786 10784 10783 10782 10781 10779 10778 10777 10776 10775 10774 10773 10772 10770 10768 10767 10766 10764 10763 10762 10761 10761 10760 10759 10759 10758 10757 10757 10756 10755 10755 10754 10753 10753 10752 10752 10751
10827 10827 10828 10830 10831 10833 10833 10832 10831 10829 10828 10826 10825 10823 10821 10819 10817 10815 10813 10811 10809 10808 10806 10805 10804 10803 10802 10800 10798 10796 10795 10793 10792 10791 10791 10791 10792 10793 10792 10791 10790 10790 10789 10788 10787 10786 10785 10784 10783 10782 10781 10780 10779 10777 10776 10775 10774 10773 10773 10771 10770 10768 10767 10766 10764 10763 10761 10760 10759 10758 10758 10757 10756 10756 10755 10754 10754 10753 10753 10752 10752 10751 10751 10751 10750
10823 10823 10825 10827 10829 10829 10829 10828 10826 10825 10823 10821 10820 10818 10816 10814 10812 10810 10807 10805 10804 10803 10802 10800 10799 10799 10797 10796 10794 10792 10790 10788 10788 10786 10787 10788 10789 10790 10789 10788 10787 10787 10786 10785 10784 10783 10783 10781 10780 10779 10778 10778 10777 10775 10774 10773 10772 10772 10771 10769 10768 10766 10766 10764 10762 10761 10759 10758 10757 10756 10755 10755 10754 10753 10752 10752 10751 10751 10751 10750 10750 10750 10750 10749 10748
10819 10819 10822 10824 10826 10826 10825 10824 10822 10820 10819 10817 10815 10813 10811 10809 10807 10804 10802 10800 10799 10798 10797 10796 10795 10794 10792 10791 10790 10788 10785 10783 10783 10782 10783 10784 10785 10786 10786 10786 10784 10784 10783 10782 10781 10780 10780 10779 10777 10776 10776 10775 10774 10773 10772 10772 10771 10770 10769 10767 10766 10765 10764 10762 10761 10759 10757 10756 10755 10754 10753 10753 10752 10751 10750 10750 10749 10749 10749 10748 10748 10748 10748 10748 10747
10815 10817 10820 10822 10823 10823 10822 10820 10818 10816 10814 10813 10811 10809 10806 10803 10800 10798 10796 10795 10794 10793 10792 10792 10790 10788 10787 10786 10786 10784 10782 10780 10779 10779 10780 10781 10782 10783 10784 10784 10783 10781 10780 10779 10778 10777 10777 10776 10775 10773 10773 10773 10772 10771 10770 10770 10769 10768 10767 10765 10764 10763 10762 10761 10759 10757 10755 10753 10752 10751 10751 10750 10750 10749 10749 10748 10748 10747 10747 10747 10746 10746 10746 10746 10745
10812 10814 10817 10819 10820 10820 10818 10816 10814 10813 10811 10809 10806 10803 10800 10796 10794 10792 10791 10789 10788 10788 10787 10787 10786 10783 10782 10781 10781 10780 10778 10777 10777 10776 10777 10778 10779 10780 10781 10781 10780 10778 10777 10776 10775 10775 10774 10773 10772 10771 10770 10770 10770 10769 10768 10768 10767 10767 10766 10764 10762 10761 10760 10759 10758 10756 10753 10752 10750 10749 10748 10748 10748 10747 10747 10746 10746 10746 10745 10745 10745 10745 10745 10744 10744
10810 10812 10815 10817 10817 10816 10814 10812 10810 10809 10807 10804 10800 10796 10792 10789 10787 10785 10785 10784 10783 10782 10782 10783 10781 10779 10778 10778 10777 10776 10776 10775 10775 10774 10774 10775 10776 10777 10778 10778 10778 10776 10774 10773 10773 10772 10771 10770 10769 10768 10768 10768 10768 10767 10766 10765 10765 10765 10764 10762 10761 10759 10758 10757 10756 10754 10751 10750 10748 10747 10746 10746 10745 10745 10745 10745 10745 10744 10744 10743 10743 10743 10743 10743 10743
10807 10810 10813 10814 10813 10812 10809 10808 10806 10805 10802 10799 10793 10787 10785 10782 10779 10779 10779 10779 10778 10778 10778 10778 10777 10775 10775 10774 10774 10774 10773 10773 10773 10773 10773 10773 10773 10774 10775 10775 10775 10774 10773 10771 10770 10769 10768 10767 10766 10766 10766 10766 10765 10764 10764 10763 10762 10762 10761 10760 10759 10758 10756 10755 10754 10752 10749 10748 10746 10745 10744 10744 10743 10743 10743 10743 10743 10742 10742 10742 10741 10741 10741 10741 10741
10805 10808 10810 10811 10809 10807 10804 10802 10801 10799 10797 10794 10785 10778 10777 10774 10772 10774 10774 10773 10772 10774 10775 10774 10774 10773 10772 10771 10771 10772 10770 10770 10770 10770 10771 10771 10770 10770 10771 10772 10772 10772 10771 10769 10768 10767 10766 10765 10764 10764 10764 10764 10763 10762 10762 10761 10760 10759 10757 10757 10756 10755 10754 10753 10752 10750 10747 10746 10744 10743 10742 10741 10741 10741 10741 10741 10741 10740 10740 10740 10740 10740 10739 10740 10739
10803 10807 10808 10808 10808 10803 10800 10799 10798 10795 10793 10790 10779 10768 10768 10768 10768 10770 10770 10768 10768 10770 10772 10771 10771 10770 10769 10769 10769 10769 10768 10768 10768 10768 10768 10768 10767 10767 10767 10767 10768 10769 10768 10767 10765 10765 10764 10762 10762 10761 10761 10761 10761 10760 10760 10759 10758 10756 10755 10753 10753 10752 10751 10750 10750 10748 10745 10743 10742 10741 10740 10739 10738 10738 10739 10739 10739 10738 10738 10738 10738 10738 10738 10738 10737
10800 10805 10805 10804 10802 10797 10795 10797 10798 10796 10791 10785 10771 10761 10762 10765 10765 10767 10766 10763 10763 10766 10769 10768 10767 10767 10767 10767 10767 10767 10766 10766 10766 10766 10765 10765 10764 10764 10763 10763 10764 10765 10765 10764 10763 10763 10762 10761 10760 10759 10759 10759 10759 10758 10758 10756 10755 10754 10753 10751 10750 10749 10748 10746 10746 10745 10743 10742 10740 10739 10737 10736 10736 10736 10737 10737 10737 10737 10737 10736 10736 10736 10736 10736 10736
10798 10801 10799 10794 10789 10790 10792 10793 10795 10793 10788 10778 10764 10758 10761 10764 10764 10763 10761 10759 10758 10762 10764 10764 10763 10764 10765 10764 10763 10764 10764 10764 10763 10763 10762 10762 10761 10761 10760 10760 10761 10761 10761 10761 10761 10760 10759 10759 10758 10757 10757 10756 10756 10756 10755 10754 10753 10752 10751 10750 10747 10745 10744 10743 10742 10742 10741 10740 10738 10737 10735 10734 10734 10734 10734 10734 10735 10735 10735 10735 10734 10734 10734 10734 10734
10796 10792 10788 10784 10782 10786 10788 10788 10788 10786 10781 10771 10760 10757 10760 10764 10763 10759 10757 10755 10754 10757 10759 10759 10760 10761 10762 10761 10760 10761 10761 10761 10760 10760 10760 10759 10759 10758 10758 10758 10757 10757 10757 10758 10758 10757 10756 10756 10756 10755 10755 10754 10754 10753 10752 10752 10751 10750 10749 10748 10745 10742 10741 10741 10740 10739 10738 10738 10737 10735 10733 10732 10732 10732 10732 10732 10732 10733 10733 10733 10732 10732 10733 10732 10732
10790 10781 10776 10775 10775 10779 10780 10782 10782 10777 10774 10767 10759 10754 10757 10762 10760 10755 10755 10753 10751 10753 10754 10754 10756 10757 10758 10757 10757 10758 10758 10757 10756 10757 10757 10757 10756 10755 10754 10754 10754 10754 10754 10755 10754 10754 10753 10753 10753 10753 10753 10752 10751 10751 10750 10750 10749 10748 10747 10747 10745 10741 10739 10739 10738 10736 10736 10735 10734 10733 10731 10730 10730 10729 10730 10730 10730 10731 10731 10731 10731 10731 10731 10731 10730
10781 10769 10764 10764 10765 10770 10774 10776 10772 10767 10767 10765 10759 10752 10753 10759 10756 10752 10753 10751 10749 10750 10750 10750 10751 10752 10753 10753 10754 10755 10755 10754 10753 10754 10754 10754 10754 10753 10751 10751 10751 10751 10751 10751 10751 10750 10750 10750 10751 10751 10751 10749 10749 10748 10748 10748 10747 10746 10744 10744 10745 10742 10739 10737 10736 10734 10733 10732 10732 10731 10729 10729 10728 10728 10728 10728 10728 10729 10729 10729 10729 10729 10729 10729 10729
10772 10757 10754 10756 10758 10764 10767 10766 10761 10759 10762 10762 10757 10748 10749 10755 10753 10751 10750 10748 10748 10747 10747 10748 10748 10749 10750 10750 10750 10751 10751 10751 10750 10751 10751 10751 10751 10750 10749 10748 10748 10748 10748 10748 10747 10747 10748 10748 10748 10748 10748 10747 10746 10746 10745 10745 10744 10743 10742 10741 10742 10740 10737 10735 10733 10732 10731 10730 10729 10728 10727 10727 10727 10726 10726 10726 10727 10727 10727 10727 10727 10727 10727 10727 10727
10763 10748 10748 10751 10752 10757 10759 10756 10752 10753 10758 10759 10752 10744 10745 10750 10749 10748 10747 10746 10745 10744 10745 10746 10746 10747 10747 10747 10747 10747 10747 10747 10747 10747 10747 10748 10748 10746 10746 10746 10745 10746 10745 10744 10744 10744 10745 10745 10745 10745 10744 10745 10744 10744 10744 10743 10742 10742 10741 10741 10739 10737 10736 10734 10731 10731 10730 10728 10728 10727 10726 10725 10725 10725 10725 10725 10725 10725 10726 10726 10726 10726 10726 10725 10724
10752 10741 10743 10746 10747 10751 10751 10748 10746 10748 10753 10752 10747 10742 10742 10746 10746 10745 10745 10743 10742 10740 10742 10745 10745 10744 10744 10744 10744 10743 10743 10743 10744 10744 10744 10744 10744 10743 10744 10744 10743 10743 10743 10742 10741 10741 10741 10741 10742 10742 10741 10742 10743 10743 10743 10743 10742 10741 10740 10740 10738 10735 10734 10733 10730 10729 10728 10726 10726 10725 10724 10724 10723 10723 10723 10723 10723 10724 10724 10724 10724 10724 10723 10723 10722
10741 10735 10737 10741 10742 10744 10743 10741 10740 10743 10747 10745 10742 10741 10740 10742 10744 10744 10743 10739 10736 10736 10738 10742 10742 10741 10740 10740 10740 10739 10739 10740 10740 10741 10741 10740 10740 10740 10741 10741 10740 10740 10740 10739 10739 10739 10738 10738 10739 10739 10739 10740 10740 10740 10741 10741 10740 10739 10737 10737 10736 10733 10732 10731 10729 10728 10727 10725 10724 10724 10723 10722 10722 10721 10721 10721 10722 10722 10722 10722 10722 10721 10721 10721 10721
10733 10730 10729 10733 10735 10737 10736 10733 10735 10738 10740 10740 10738 10737 10737 10738 10742 10745 10742 10736 10732 10732 10734 10737 10738 10738 10737 10736 10736 10736 10735 10737 10737 10738 10738 10737 10738 10738 10738 10738 10737 10736 10736 10736 10737 10736 10735 10735 10735 10736 10737 10738 10737 10738 10738 10737 10736 10736 10735 10733 10732 10732 10731 10730 10728 10727 10726 10724 10722 10722 10722 10721 10720 10720 10720 10720 10720 10720 10720 10720 10720 10719 10719 10720 10719
10726 10722 10720 10726 10730 10730 10729 10727 10729 10732 10734 10734 10733 10732 10733 10735 10739 10743 10741 10734 10730 10731 10732 10733 10734 10734 10733 10733 10733 10733 10733 10733 10734 10735 10736 10735 10735 10734 10734 10735 10735 10733 10732 10732 10733 10733 10731 10732 10732 10732 10734 10735 10735 10736 10735 10733 10733 10733 10733 10731 10729 10729 10730 10728 10727 10726 10724 10723 10721 10721 10721 10720 10719 10718 10718 10718 10719 10719 10719 10719 10718 10718 10718 10717 10717
10719 10714 10712 10718 10724 10724 10723 10721 10722 10724 10726 10729 10727 10726 10728 10731 10735 10738 10738 10732 10729 10729 10728 10728 10729 10729 10730 10731 10731 10730 10731 10731 10731 10733 10733 10732 10732 10732 10732 10733 10733 10732 10730 10729 10730 10730 10728 10729 10730 10729 10731 10732 10733 10734 10732 10730 10731 10731 10731 10730 10727 10727 10727 10726 10725 10724 10723 10721 10720 10719 10719 10719 10718 10717 10717 10717 10717 10717 10717 10717 10716 10716 10715 10715 10714
10715 10709 10707 10710 10716 10718 10718 10717 10716 10717 10719 10722 10721 10721 10722 10725 10728 10733 10735 10730 10726 10724 10723 10723 10725 10726 10727 10728 10727 10728 10728 10728 10728 10730 10730 10730 10729 10729 10729 10730 10730 10729 10729 10728 10727 10726 10726 10727 10727 10726 10727 10729 10729 10730 10729 10728 10728 10728 10728 10728 10725 10725 10725 10724 10724 10723 10721 10719 10718 10717 10717 10717 10716 10715 10715 10715 10715 10715 10715 10715 10714 10714 10713 10712 10712
10711 10706 10702 10703 10709 10712 10714 10713 10712 10710 10712 10715 10715 10715 10715 10718 10722 10727 10730 10727 10722 10721 10720 10718 10719 10722 10724 10725 10724 10724 10725 10725 10725 10727 10728 10728 10727 10726 10727 10727 10727 10727 10726 10725 10724 10723 10723 10724 10724 10724 10725 10726 10726 10726 10726 10725 10725 10724 10725 10725 10724 10723 10722 10722 10722 10721 10719 10717 10715 10714 10714 10714 10713 10713 10713 10713 10713 10713 10713 10712 10712 10712 10711 10710 10709
10708 10703 10698 10699 10703 10706 10708 10709 10707 10705 10707 10709 10708 10708 10708 10711 10716 10720 10723 10722 10718 10718 10718 10715 10714 10717 10720 10721 10720 10720 10721 10721 10723 10724 10725 10724 10724 10723 10725 10725 10725 10725 10724 10722 10721 10720 10720 10722 10722 10722 10723 10723 10723 10723 10723 10723 10722 10721 10721 10721 10721 10720 10719 10720 10719 10718 10716 10715 10713 10711 10710 10710 10710 10711 10711 10711 10711 10711 10710 10710 10710 10709 10708 10707 10706
10708 10701 10696 10696 10698 10700 10703 10704 10702 10701 10701 10702 10701 10701 10702 10706 10709 10712 10715 10716 10714 10714 10714 10712 10711 10712 10714 10715 10716 10717 10717 10717 10719 10721 10721 10720 10720 10721 10722 10723 10723 10723 10721 10720 10718 10716 10717 10719 10720 10720 10720 10719 10720 10721 10720 10720 10719 10719 10718 10718 10717 10717 10716 10716 10716 10714 10713 10712 10710 10708 10707 10707 10708 10708 10708 10708 10708 10708 10708 10707 10707 10706 10704 10703 10702
10708 10700 10694 10692 10693 10695 10698 10699 10698 10696 10696 10696 10696 10696 10699 10701 10702 10704 10706 10708 10709 10709 10709 10708 10708 10709 10710 10711 10712 10713 10713 10713 10715 10716 10717 10717 10717 10718 10719 10720 10720 10720 10719 10718 10716 10713 10713 10715 10716 10717 10717 10716 10716 10717 10717 10717 10716 10715 10715 10715 10714 10714 10714 10713 10712 10711 10710 10708 10706 10704 10705 10705 10705 10706 10706 10705 10705 10705 10705 10704 10703 10702 10701 10700 10700
10705 10699 10694 10690 10689 10690 10692 10693 10692 10691 10690 10690 10690 10692 10695 10696 10696 10697 10698 10701 10703 10703 10704 10704 10706 10706 10707 10708 10709 10710 10709 10710 10710 10712 10713 10713 10713 10715 10715 10716 10717 10717 10716 10716 10715 10712 10710 10709 10711 10713 10713 10713 10713 10714 10714 10713 10713 10712 10711 10711 10711 10711 10711 10711 10710 10709 10708 10706 10702 10701 10701 10702 10701 10702 10703 10703 10702 10702 10701 10701 10700 10699 10698 10697 10696
10700 10701 10699 10690 10684 10682 10684 10686 10685 10685 10685 10683 10684 10687 10689 10691 10691 10692 10692 10694 10696 10696 10698 10701 10702 10702 10703 10704 10706 10706 10706 10706 10706 10708 10708 10708 10709 10711 10712 10713 10714 10714 10714 10713 10713 10712 10707 10703 10704 10708 10709 10708 10709 10710 10710 10709 10709 10708 10708 10708 10707 10708 10708 10707 10707 10706 10705 10703 10700 10697 10697 10698 10697 10698 10699 10699 10699 10698 10698 10697 10697 10696 10695 10694 10693
10698 10705 10703 10692 10681 10675 10674 10677 10676 10677 10678 10678 10678 10680 10682 10684 10685 10686 10686 10687 10689 10690 10693 10696 10697 10697 10698 10700 10702 10702 10702 10702 10703 10703 10704 10704 10706 10707 10708 10709 10710 10710 10710 10711 10711 10710 10706 10699 10699 10704 10705 10704 10704 10703 10704 10704 10704 10704 10704 10704 10704 10704 10704 10704 10704 10703 10702 10700 10698 10695 10693 10694 10694 10694 10695 10695 10695 10695 10694 10693 10693 10693 10692 10692 10691
10692 10694 10689 10684 10679 10672 10668 10669 10669 10669 10671 10673 10673 10674 10675 10677 10678 10679 10680 10681 10684 10686 10689 10691 10693 10693 10695 10696 10697 10698 10698 10698 10699 10699 10699 10701 10701 10702 10704 10705 10706 10706 10706 10707 10707 10706 10704 10699 10698 10702 10702 10700 10698 10698 10699 10700 10700 10700 10700 10700 10700 10700 10700 10700 10700 10700 10699 10698 10696 10694 10692 10691 10691 10691 10692 10692 10692 10691 10690 10690 10690 10689 10689 10688 10688
10681 10678 10673 10674 10674 10670 10665 10662 10662 10662 10664 10668 10669 10668 10669 10670 10671 10673 10674 10676 10680 10682 10684 10686 10688 10690 10691 10692 10693 10693 10693 10693 10693 10694 10695 10696 10697 10698 10699 10700 10701 10702 10702 10703 10704 10703 10703 10701 10699 10701 10702 10698 10694 10693 10695 10696 10697 10696 10696 10696 10697 10696 10697 10697 10697 10696 10696 10695 10694 10692 10691 10690 10689 10689 10690 10690 10689 10689 10688 10687 10686 10686 10685 10685 10684
10670 10668 10667 10667 10666 10664 10660 10657 10657 10657 10659 10662 10664 10664 10664 10664 10665 10668 10670 10673 10675 10677 10680 10682 10684 10686 10687 10688 10688 10688 10688 10688 10688 10688 10689 10691 10692 10693 10693 10695 10696 10697 10698 10699 10700 10699 10700 10699 10698 10699 10698 10695 10691 10690 10690 10691 10693 10693 10692 10692 10693 10693 10693 10693 10694 10693 10693 10692 10691 10690 10689 10688 10688 10688 10688 10687 10687 10686 10685 10685 10684 10683 10682 10682 10681
10660 10659 10660 10660 10660 10658 10654 10653 10653 10653 10655 10657 10658 10658 10659 10659 10660 10663 10666 10668 10670 10672 10674 10677 10679 10680 10682 10682 10682 10682 10683 10683 10683 10683 10685 10686 10687 10688 10688 10689 10690 10692 10694 10695 10695 10695 10695 10695 10694 10693 10692 10690 10689 10686 10686 10687 10689 10689 10689 10689 10689 10689 10689 10690 10691 10690 10689 10689 10688 10687 10686 10685 10685 10685 10685 10685 10684 10684 10683 10683 10682 10681 10680 10679 10678
10653 10653 10654 10654 10656 10656 10653 10652 10650 10650 10652 10653 10652 10653 10653 10654 10656 10658 10660 10662 10665 10668 10670 10671 10672 10674 10676 10676 10676 10677 10676 10676 10677 10679 10680 10681 10682 10683 10684 10684 10686 10687 10689 10691 10691 10689 10691 10692 10691 10688 10686 10686 10684 10682 10682 10684 10684 10685 10685 10685 10686 10686 10686 10687 10687 10686 10685 10685 10684 10683 10683 10683 10683 10683 10683 10682 10682 10681 10681 10680 10679 10678 10677 10676 10675